• Processing (Info)

  • MPEC 2008-T19 : 2008 TG

    The following Minor Planet Electronic Circular may be linked-to from your own Web pages, but must not otherwise be redistributed electronically.

    A form allowing access to any MPEC is at the bottom of this page.


    Read MPEC 2008-T18 Read MPEC 2008-T20


    M.P.E.C. 2008-T19                                Issued 2008 Oct. 2, 13:57 UT
    
         The Minor Planet Electronic Circulars contain information on unusual
             minor planets and routine data on comets.  They are published
       on behalf of Commission 20 of the International Astronomical Union by the
              Minor Planet Center, Smithsonian Astrophysical Observatory,
                              Cambridge, MA 02138, U.S.A.
    
                 Prepared using the Tamkin Foundation Computer Network
    
                                  MPC@CFA.HARVARD.EDU
              URL http://www.cfa.harvard.edu/iau/mpc.html  ISSN 1523-6714
    
                                        2008 TG
    
    Observations:
         K08T00G* C2008 10 01.27088 00 29 23.82 +11 24 37.4          20.6 V ET019G96
         K08T00G  C2008 10 01.27596 00 29 24.28 +11 24 37.4          20.1 V ET019G96
         K08T00G  C2008 10 01.28096 00 29 24.75 +11 24 37.6          21.0 V ET019G96
         K08T00G  C2008 10 01.28596 00 29 25.22 +11 24 37.9          20.9 V ET019G96
         K08T00G  C2008 10 01.34286 00 29 30.62 +11 24 39.4          20.6 V ET019G96
         K08T00G  C2008 10 01.35473 00 29 31.79 +11 24 39.9          20.8 V ET019G96
         K08T00G  C2008 10 01.36061 00 29 32.31 +11 24 39.8          20.1 V ET019G96
         K08T00G  C2008 10 02.12148 00 30 54.09 +11 24 44.0                 ET019J95
         K08T00G  C2008 10 02.12988 00 30 54.92 +11 24 43.7          20.5 R ET019J95
         K08T00G  C2008 10 02.34055 00 31 17.92 +11 24 59.1          20.0 R ET019H01
         K08T00G  C2008 10 02.34772 00 31 18.59 +11 24 59.0          20.6 R ET019H01
         K08T00G  C2008 10 02.35133 00 31 18.93 +11 24 58.9          20.4 R ET019H01
    
    Observer details:
    G96 Mt. Lemmon Survey.  Observer A. Boattini.  Measurers E. C. Beshore,
        A. Boattini, G. J. Garradd, A. R. Gibbs, A. D. Grauer, R. E. Hill,
        R. A. Kowalski, S. M. Larson, R. H. McNaught.  1.5-m reflector + CCD.
    H01 Magdalena Ridge Observatory, Socorro.  Observer W. H. Ryan.  2.4-m f/8.9
        reflector + CCD.
    J95 Great Shefford.  Observer P. Birtwhistle.  0.40-m f/6.0 Schmidt-Cassegrain
        + CCD.
    
    Orbital elements:
    2008 TG                                                  Earth MOID = 0.1602 AU
    Epoch 2008 Nov. 30.0 TT = JDT 2454800.5                 MPC
    M  24.14926              (2000.0)            P               Q
    n   0.27456483     Peri.   96.60828     +0.95296294     +0.30206593
    a   2.3444417      Node   245.81233     -0.28773225     +0.87586634
    e   0.5022404      Incl.    1.56138     -0.09524594     +0.37631680
    P   3.59           H   23.1           G   0.15           U   8
    Residuals in seconds of arc
    081001 G96  0.0   0.1+    081001 G96  0.2+  0.0     081002 J95  0.1-  0.2-
    081001 G96  0.3-  0.1-    081001 G96  0.8+  0.3+    081002 H01  0.0   0.4+
    081001 G96  0.3-  0.1-    081001 G96  0.3+  0.1+    081002 H01  0.1+  0.3+
    081001 G96  0.4-  0.0     081002 J95  0.0   0.0     081002 H01  0.2+  0.2+
    
    Ephemeris:
    2008 TG                  a,e,i = 2.34, 0.50, 2                   q = 1.1670
    Date    TT    R. A. (2000) Decl.     Delta      r     Elong.  Phase     V
    2008 10 01    00 28.89   +11 24.7    0.209    1.208   171.8     6.8    20.6
    2008 10 03    00 32.47   +11 25.3    0.215    1.214   172.5     6.2    20.7
    2008 10 05    00 35.84   +11 24.7    0.222    1.221   173.0     5.7    20.7
    2008 10 07    00 39.04   +11 23.0    0.229    1.227   173.4     5.4    20.8
    2008 10 09    00 42.08   +11 20.6    0.237    1.234   173.5     5.3    20.9
    2008 10 11    00 44.96   +11 17.6    0.245    1.242   173.3     5.4    21.0
    2008 10 13    00 47.71   +11 14.2    0.253    1.249   172.8     5.8    21.1
    2008 10 15    00 50.33   +11 10.4    0.262    1.257   172.0     6.3    21.2
    2008 10 17    00 52.85   +11 06.5    0.271    1.265   171.1     7.0    21.3
    2008 10 19    00 55.26   +11 02.6    0.281    1.274   170.0     7.8    21.4
    2008 10 21    00 57.59   +10 58.7    0.291    1.283   168.7     8.7    21.6
    2008 10 23    00 59.84   +10 54.9    0.302    1.292   167.4     9.6    21.7
    2008 10 25    01 02.04   +10 51.5    0.314    1.301   166.1    10.6    21.8
    2008 10 27    01 04.19   +10 48.4    0.325    1.310   164.7    11.6    22.0
    2008 10 29    01 06.31   +10 45.7    0.338    1.320   163.2    12.5    22.1
    2008 10 31    01 08.41   +10 43.6    0.350    1.330   161.8    13.5    22.2
    
    Timothy B. Spahr             (C) Copyright 2008 MPC           M.P.E.C. 2008-T19
    

    Read MPEC 2008-T18 Read MPEC 2008-T20


    MPEC number:

    Enter an MPEC number in one of the following forms:

    • 1997-B01 (the full form)
    • J97B01 (the packed version of the full form)
    • B01 (the abbreviated form)